Content
SEND FEEDBACK

Daily
Averages
Monthly
Summary
United States of America

HARRISBURG, ILLINOIS


Home > North America > United States > Illinois
Elevation: 369 feet     Latitude: 37 43N     Longitude: 088 31W

WEATHER
 
SELECT A DAY
Number of Records: 326,463;   Date Range: 7/17/01 - 9/18/14
 
SHARE

PRINT THIS DATA

[ ← Previous Day ]
WEATHER ALMANAC - JANUARY 23, 2013
[ Next Day → ]
[ °C ]   °F
Weather ElementAverageHighLow
Temperature29.1 °F42.8 °F (2:35 pm)17.6 °F (2:35 am)
Dewpoint17.8 °F24.8 °F (8:15 pm)12.2 °F (2:55 am)
Humidity65.2 %86 % (2:35 am)41 % (11:35 am)
Barometer30.27 in30.39 in (12:35 am)30.15 in (3:15 pm)
Wind Speed4.2 mph11.5 mph (11:55 pm)
Weather ElementAverage
Visibility10 mi
Wind DirectionSSE (166.5 °)

Weather ElementTotal
Precipitation---
Heating Degree Days34.8 (Base 65)
Averaged from 71 records on January 23, 2013
WEATHER CONDITIONS BREAKOUT
WIND DIRECTION BREAKOUT
WEATHER BY HOUR - JANUARY 23, 2013
[ °C ]   °F
Local TimeTemperatureDewpointHumidityBarometerVisibilityWind DirectionWind SpeedGust SpeedPrecipitationEventsConditions
12:35 AM19.4 °F14.0 °F80 %30.39 in10.0 miCalmClear
12:55 AM19.4 °F14.0 °F80 %30.38 in10.0 miNE (50°)4.6 mphClear
1:15 AM19.4 °F14.0 °F80 %30.38 in10.0 miENE (60°)4.6 mphClear
1:35 AM19.4 °F14.0 °F80 %30.38 in10.0 miCalmClear
1:55 AM19.4 °F14.0 °F80 %30.38 in10.0 miCalmClear
2:15 AM19.4 °F14.0 °F80 %30.38 in10.0 miCalmClear
2:35 AM17.6 °F14.0 °F86 %30.38 in10.0 miCalmClear
2:55 AM17.6 °F12.2 °F79 %30.38 in10.0 miNNE (30°)3.5 mphClear
3:15 AM17.6 °F14.0 °F86 %30.37 in10.0 miCalmClear
3:35 AM17.6 °F12.2 °F79 %30.36 in10.0 miENE (60°)3.5 mphClear
3:55 AM17.6 °F12.2 °F79 %30.36 in10.0 miCalmClear
4:15 AM17.6 °F14.0 °F86 %30.34 in10.0 miCalmClear
4:35 AM17.6 °F14.0 °F86 %30.34 in10.0 miCalmClear
4:55 AM17.6 °F14.0 °F86 %30.35 in10.0 miCalmClear
5:15 AM17.6 °F14.0 °F86 %30.35 in10.0 miCalmClear
5:35 AM17.6 °F14.0 °F86 %30.35 in10.0 miCalmClear
5:55 AM17.6 °F14.0 °F86 %30.35 in10.0 miCalmClear
6:15 AM17.6 °F14.0 °F86 %30.34 in10.0 miCalmClear
6:35 AM17.6 °F14.0 °F86 %30.34 in10.0 miCalmClear
6:55 AM17.6 °F14.0 °F86 %30.35 in10.0 miCalmClear
7:15 AM17.6 °F14.0 °F86 %30.35 in10.0 miCalmClear
7:35 AM19.4 °F14.0 °F80 %30.34 in10.0 miCalmClear
7:55 AM19.4 °F15.8 °F86 %30.34 in10.0 miCalmClear
8:15 AM21.2 °F12.2 °F68 %30.34 in10.0 miSSE (150°)3.5 mphClear
8:35 AM23.0 °F12.2 °F63 %30.33 in10.0 miCalmClear
8:55 AM23.0 °F12.2 °F63 %30.33 in10.0 miSSE (160°)3.5 mphClear
9:15 AM26.6 °F12.2 °F55 %30.34 in10.0 miCalmClear
9:35 AM28.4 °F12.2 °F51 %30.33 in10.0 miSouth (180°)3.5 mphClear
9:55 AM30.2 °F12.2 °F47 %30.32 in10.0 miSouth (190°)4.6 mphClear
10:15 AM30.2 °F12.2 °F47 %30.32 in10.0 miSSE (150°)4.6 mphClear
10:35 AM32.0 °F12.2 °F44 %30.30 in10.0 miSSW (200°)3.5 mphClear
10:55 AM33.8 °F14.0 °F44 %30.29 in10.0 miSSW (210°)8.1 mphClear
11:15 AM33.8 °F14.0 °F44 %30.28 in10.0 miSSW (210°)8.1 mphClear
11:35 AM35.6 °F14.0 °F41 %30.27 in10.0 miSSW (200°)4.6 mphClear
11:55 AM35.6 °F15.8 °F44 %30.24 in10.0 miWSW (250°)8.1 mphClear
12:15 PM37.4 °F15.8 °F41 %30.23 in10.0 miSW (220°)4.6 mphClear
12:35 PM37.4 °F17.6 °F45 %30.21 in10.0 miSW (230°)5.8 mphClear
12:55 PM39.2 °F17.6 °F42 %30.21 in10.0 miWSW (240°)8.1 mphClear
1:15 PM41.0 °F19.4 °F42 %30.19 in10.0 miSW (230°)6.9 mphClear
1:35 PM41.0 °F19.4 °F42 %30.18 in10.0 miWSW (250°)8.1 mphClear
1:55 PM41.0 °F19.4 °F42 %30.18 in10.0 miSW (220°)6.9 mphClear
2:15 PM41.0 °F19.4 °F42 %30.17 in10.0 miSW (230°)5.8 mphClear
2:35 PM42.8 °F21.2 °F42 %30.16 in10.0 miSW (220°)6.9 mphClear
2:55 PM42.8 °F21.2 °F42 %30.17 in10.0 miWSW (240°)8.1 mphClear
3:15 PM42.8 °F21.2 °F42 %30.15 in10.0 miWSW (250°)8.1 mphClear
3:35 PM42.8 °F21.2 °F42 %30.15 in10.0 miSW (230°)9.2 mphClear
3:55 PM42.8 °F23.0 °F46 %30.15 in10.0 miWSW (240°)8.1 mphClear
4:15 PM42.8 °F23.0 °F46 %30.15 in10.0 miWest (260°)5.8 mphClear
4:35 PM41.0 °F23.0 °F49 %30.15 in10.0 miWest (260°)5.8 mphClear
4:55 PM41.0 °F23.0 °F49 %30.15 in10.0 miWSW (240°)4.6 mphClear
5:15 PM37.4 °F23.0 °F56 %30.15 in10.0 miSSW (210°)3.5 mphClear
5:35 PM35.6 °F23.0 °F60 %30.16 in10.0 miWest (260°)4.6 mphClear
5:55 PM35.6 °F23.0 °F60 %30.16 in10.0 miNW (310°)3.5 mphClear
6:15 PM33.8 °F23.0 °F65 %30.16 in10.0 miWest (280°)3.5 mphClear
6:35 PM32.0 °F23.0 °F69 %30.16 in7.0 miWest (260°)4.6 mphClear
6:55 PM32.0 °F23.0 °F69 %30.17 in10.0 miWest (280°)4.6 mphClear
7:15 PM30.2 °F23.0 °F75 %30.18 in10.0 miWNW (290°)5.8 mphClear
7:35 PM30.2 °F23.0 °F75 %30.18 in10.0 miWest (270°)6.9 mphClear
7:55 PM32.0 °F23.0 °F69 %30.18 in10.0 miWest (280°)5.8 mphClear
8:15 PM30.2 °F24.8 °F80 %30.20 in10.0 miWNW (300°)5.8 mphClear
8:35 PM32.0 °F24.8 °F75 %30.21 in10.0 miNW (310°)6.9 mphClear
8:55 PM32.0 °F23.0 °F69 %30.21 in10.0 miWNW (300°)6.9 mphClear
9:15 PM32.0 °F23.0 °F69 %30.22 in10.0 miWNW (300°)6.9 mphClear
9:35 PM32.0 °F23.0 °F69 %30.23 in10.0 miNW (320°)4.6 mphClear
9:55 PM30.2 °F23.0 °F75 %30.23 in10.0 miWNW (300°)4.6 mphClear
10:15 PM32.0 °F23.0 °F69 %30.24 in10.0 miNW (320°)4.6 mphClear
10:35 PM32.0 °F23.0 °F69 %30.25 in10.0 miWNW (290°)4.6 mphClear
10:55 PM32.0 °F23.0 °F69 %30.25 in10.0 miWNW (300°)8.1 mphClear
11:15 PM32.0 °F23.0 °F69 %30.26 in10.0 miNW (310°)9.2 mphClear
11:35 PM32.0 °F23.0 °F69 %30.26 in10.0 miNNW (330°)9.2 mphClear
11:55 PM32.0 °F23.0 °F69 %30.27 in10.0 miNNW (340°)11.5 mphClear
Hourly data recorded from KHSB, located miles away from Harrisburg, Illinois







STORIES FROM OUR PARTNERS